DW3648 Weather Reports


time (UTC)temp
F
wind
direction
speed
knots
gust
knots
rain 1hr
in
rain 24hr
in
rain mn
in
humidity
%
barometer
mb
20260504231505 55 241 0.9 4.3 0.00 0.00 0.00 61 1009.1
20260504230002 55 113 1.7 3.5 0.00 0.00 0.00 61 1009.1
20260504224508 55 115 2.6 4.3 0.00 0.00 0.00 60 1009.1
20260504223059 56 114 0.9 2.6 0.00 0.00 0.00 59 1009.1
20260504221559 56 105 1.7 5.2 0.00 0.00 0.00 57 1009.2
20260504220100 57 99 0.9 4.3 0.00 0.00 0.00 56 1009.2
20260504214607 58 137 0.9 3.5 0.00 0.00 0.00 55 1009.2
20260504213055 59 235 0.0 0.0 0.00 0.00 0.00 53 1009.2
20260504211554 59 235 0.0 2.6 0.00 0.00 0.00 52 1009.2
20260504210058 60 235 0.0 1.7 0.00 0.00 0.00 50 1009.0
20260504204554 60 258 0.9 3.5 0.00 0.00 0.00 49 1008.8
20260504203052 61 255 2.6 7.0 0.00 0.00 0.00 49 1008.6
20260504201549 62 228 0.0 4.3 0.00 0.00 0.00 49 1008.3
20260504200048 62 286 1.7 6.1 0.00 0.00 0.00 48 1008.1
20260504194553 63 284 2.6 7.8 0.00 0.00 0.00 47 1007.9
20260504193045 64 295 0.9 7.0 0.00 0.00 0.00 46 1007.7
20260504191559 64 287 2.6 6.1 0.00 0.00 0.00 45 1007.6
20260504190046 65 269 0.0 7.0 0.00 0.00 0.00 44 1007.3
20260504184543 66 250 3.5 7.8 0.00 0.00 0.00 43 1007.3
20260504183041 67 285 2.6 9.6 0.00 0.00 0.00 40 1007.1
20260504181540 68 289 4.3 8.7 0.00 0.00 0.00 39 1007.0
20260504180039 69 267 4.3 7.8 0.00 0.00 0.00 38 1007.0
20260504174539 69 236 1.7 7.8 0.00 0.00 0.00 38 1007.0
20260504173011 70 251 0.9 8.7 0.00 0.00 0.00 35 1007.1
20260504171516 70 215 2.6 7.8 0.00 0.00 0.00 37 1007.2
20260504081600 58 181 0.9 6.1 0.00 0.00 0.00 72 1008.3
20260504044540 53 106 2.6 4.3 0.00 0.00 0.00 81 1007.0
20260504043046 54 92 1.7 4.3 0.00 0.00 0.00 80 1007.1
20260504041538 54 111 1.7 5.2 0.00 0.00 0.00 80 1007.2
20260504040035 54 103 0.0 2.6 0.00 0.00 0.00 79 1007.1
20260504034534 54 103 0.9 2.6 0.00 0.00 0.00 79 1007.1
20260504033036 54 102 0.0 2.6 0.00 0.00 0.00 78 1007.3
20260504031529 55 99 0.0 4.3 0.00 0.00 0.00 78 1007.5
20260504030030 55 102 0.0 3.5 0.00 0.00 0.00 78 1007.5
20260504024523 55 103 0.0 2.6 0.00 0.00 0.00 77 1007.5
20260504023027 55 103 0.0 1.7 0.00 0.00 0.00 77 1007.5
20260504021520 56 102 0.9 4.3 0.00 0.00 0.00 76 1007.6
20260504020019 56 97 0.0 2.6 0.00 0.00 0.00 75 1007.6
20260504014615 57 114 1.7 4.3 0.00 0.00 0.00 73 1007.6
20260504013017 57 232 0.0 0.9 0.00 0.00 0.00 73 1007.8
20260504011518 57 197 0.0 3.5 0.00 0.00 0.00 72 1007.9
20260504010009 58 194 0.9 4.3 0.00 0.00 0.00 71 1008.0
20260504004507 58 79 0.9 6.1 0.00 0.00 0.00 71 1008.1
20260504003006 58 194 0.0 3.5 0.00 0.00 0.00 70 1008.3
20260504001503 58 248 0.0 1.7 0.00 0.00 0.00 70 1008.4
20260504000002 59 248 0.0 1.7 0.00 0.00 0.00 69 1008.5
20260503234600 59 236 0.9 3.5 0.00 0.00 0.00 68 1008.5
20260503234503 59 227 1.7 3.5 0.00 0.00 0.00 68 1008.5
20260503233058 59 238 0.0 3.5 0.00 0.00 0.00 67 1008.5